Weather History for Little Rock AFB, AR

Change the Weather History Date:

Saturday, July 27, 2013

  Actual Average Record
Temperature  
Mean Temperature 76 °F -  
Max Temperature 87 °F 91 °F 106 °F (1998)
Min Temperature 66 °F 70 °F 61 °F (2004)
Cooling Degree Days 11    
Growing Degree Days 26 (Base 50)    
Moisture  
Dew Point 66 °F    
Average Humidity 85    
Maximum Humidity 100    
Minimum Humidity 47    
Precipitation  
Precipitation 0.27 in - - ()
Sea Level Pressure  
Sea Level Pressure 29.99 in    
Wind  
Wind Speed 2 mph (NNE)    
Max Wind Speed 6 mph    
Max Gust Speed -    
Visibility 9 miles    
Events Rain    
Averages and records for this station are not official NWS values.
T = Trace of Precipitation, MM = Missing Value Source: NWS Daily Summary

Daily Weather History Graph

Daily Weather History Graph

Search for Another Location

Airport:

Trip Planner

Search our weather history database for the weather conditions in past years. The results will help you decide how hot, cold, wet, or windy it might be!

Date:

Astronomy

Jul. 27, 2013 Rise Set
Actual Time 6:14 AM CDT 8:15 PM CDT
Civil Twilight 5:46 AM CDT 8:43 PM CDT
Nautical Twilight 5:12 AM CDT 9:17 PM CDT
Astronomical Twilight 4:35 AM CDT 9:53 PM CDT
Moon 11:19 PM CDT (7/27) 11:39 AM CDT (7/27)
Length of Visible Light 14h 56m
Length of Day
14h 00m
Waning Gibbous, 70% of the Moon is Illuminated
Jul 27
Waning Gibbous
Jul 29
Last Quarter
Aug 6
New
Aug 14
First Quarter
Aug 20
Full

Hourly Weather History & Observations

Time (CDT) Temp. Heat Index Dew Point Humidity Pressure Visibility Wind Dir Wind Speed Gust Speed Precip Events Conditions
12:04 AM 68.0 °F - 66.2 °F 94% 30.02 in 10.0 mi SW 2.3 mph - N/A Rain Light Rain
12:58 AM 66.9 °F - 65.1 °F 94% 30.01 in 6.0 mi NE 3.5 mph - 0.05 in Rain Light Rain
1:36 AM 66.2 °F - 64.4 °F 94% 30.00 in 10.0 mi North 5.8 mph - N/A   Mostly Cloudy
1:58 AM 66.2 °F - 64.8 °F 95% 30.01 in 10.0 mi North 3.5 mph - 0.02 in   Overcast
2:39 AM 66.2 °F - 66.2 °F 100% 29.99 in 10.0 mi Calm Calm - N/A   Light Drizzle
2:58 AM 66.7 °F - 65.3 °F 95% 29.99 in 3.0 mi NNE 1.2 mph - 0.03 in Rain Light Rain
3:13 AM 66.2 °F - 66.2 °F 100% 29.98 in 5.0 mi Calm Calm - N/A Rain Light Rain
3:23 AM 66.2 °F - 66.2 °F 100% 29.98 in 8.0 mi NNE 1.2 mph - N/A Rain Light Rain
3:33 AM 66.2 °F - 66.2 °F 100% 29.99 in 1.5 mi Calm Calm - N/A Rain Heavy Rain
3:38 AM 66.2 °F - 66.2 °F 100% 29.99 in 1.0 mi Calm Calm - N/A Rain Rain
3:43 AM 66.2 °F - 66.2 °F 100% 29.99 in 2.0 mi NNW 1.2 mph - N/A Rain Light Rain
3:48 AM 66.2 °F - 66.2 °F 100% 29.99 in 3.0 mi Calm Calm - N/A Rain Light Rain
3:58 AM 66.6 °F - 66.0 °F 98% 29.99 in 8.0 mi North 2.3 mph - 0.16 in Rain Light Rain
4:13 AM 66.2 °F - 66.2 °F 100% 29.99 in 10.0 mi West 1.2 mph - N/A   Overcast
4:20 AM 66.2 °F - 66.2 °F 100% 29.98 in 10.0 mi Calm Calm - N/A Rain Light Rain
4:58 AM 66.2 °F - 66.2 °F 100% 29.99 in 10.0 mi NNE 2.3 mph - 0.00 in   Light Drizzle
6:55 AM 68.0 °F - 66.2 °F 94% 30.01 in 10.0 mi NE 3.5 mph - N/A   Overcast
7:58 AM 67.5 °F - 66.6 °F 97% 30.03 in 10.0 mi ENE 3.5 mph - N/A   Overcast
8:33 AM 68.0 °F - 66.2 °F 94% 30.02 in 10.0 mi NE 3.5 mph - N/A   Overcast
8:38 AM 68.0 °F - 66.2 °F 94% 30.02 in 10.0 mi NE 4.6 mph - N/A   Overcast
8:43 AM 68.0 °F - 66.2 °F 94% 30.02 in 10.0 mi NNE 4.6 mph - N/A   Overcast
8:48 AM 69.8 °F - 66.2 °F 88% 30.02 in 10.0 mi Variable 4.6 mph - N/A   Overcast
8:58 AM 69.4 °F - 66.6 °F 91% 30.03 in 10.0 mi North 3.5 mph - N/A   Overcast
9:03 AM 69.8 °F - 66.2 °F 88% 30.01 in 10.0 mi Variable 1.2 mph - N/A   Mostly Cloudy
9:08 AM 69.8 °F - 66.2 °F 88% 30.01 in 10.0 mi NE 2.3 mph - N/A   Mostly Cloudy
9:13 AM 69.8 °F - 66.2 °F 88% 30.01 in 10.0 mi NE 3.5 mph - N/A   Scattered Clouds
9:53 AM 73.4 °F - 66.2 °F 78% 30.02 in 10.0 mi Variable 4.6 mph - N/A   Mostly Cloudy
9:58 AM 72.7 °F - 66.9 °F 82% 30.01 in 10.0 mi NNE 5.8 mph - 0.01 in   Mostly Cloudy
10:03 AM 73.4 °F - 66.2 °F 78% 30.02 in 10.0 mi NNE 4.6 mph - N/A   Scattered Clouds
10:58 AM 75.7 °F - 66.9 °F 74% 30.01 in 10.0 mi ENE 2.3 mph - N/A   Partly Cloudy
11:13 AM 77.0 °F - 66.2 °F 69% 30.01 in 10.0 mi Variable 1.2 mph - N/A   Mostly Cloudy
11:58 AM 76.8 °F - 66.6 °F 70% 30.00 in 10.0 mi Calm Calm - N/A   Overcast
12:08 PM 77.0 °F - 66.2 °F 69% 30.00 in 10.0 mi Variable 1.2 mph - N/A   Mostly Cloudy
12:48 PM 78.8 °F - 66.2 °F 65% 29.99 in 10.0 mi Variable 3.5 mph - N/A   Mostly Cloudy
12:58 PM 79.5 °F - 66.7 °F 65% 29.99 in 10.0 mi Variable 1.2 mph - N/A   Scattered Clouds
1:58 PM 82.2 °F 84.7 °F 66.9 °F 60% 29.97 in 10.0 mi Variable 3.5 mph - N/A   Partly Cloudy
3:58 PM 86.2 °F 88.8 °F 66.9 °F 52% 29.94 in 10.0 mi NE 2.3 mph - N/A   Partly Cloudy
4:58 PM 86.4 °F 89.4 °F 67.6 °F 53% 29.92 in 10.0 mi NNW 5.8 mph - N/A   Clear
5:58 PM 85.6 °F 89.1 °F 68.2 °F 56% 29.92 in 10.0 mi North 3.5 mph - N/A   Scattered Clouds
6:58 PM 85.6 °F 86.6 °F 63.1 °F 47% 29.92 in 10.0 mi NW 4.6 mph - N/A   Clear
7:58 PM 79.2 °F - 67.5 °F 67% 29.94 in 10.0 mi Calm Calm - N/A   Clear
8:58 PM 73.4 °F - 66.7 °F 80% 29.94 in 10.0 mi Calm Calm - N/A   Clear
9:15 PM 71.6 °F - 66.2 °F 83% 29.94 in 10.0 mi Calm Calm - N/A   Light Drizzle
9:17 PM 71.6 °F - 68.0 °F 88% 29.94 in 10.0 mi ENE 1.2 mph - N/A   Clear
9:21 PM 71.6 °F - 68.0 °F 88% 29.94 in 10.0 mi Calm Calm - N/A   Light Drizzle
9:25 PM 71.6 °F - 68.0 °F 88% 29.95 in 10.0 mi Calm Calm - N/A   Clear
9:58 PM 70.3 °F - 67.8 °F 92% 29.96 in 10.0 mi Calm Calm - 0.00 in   Clear
10:58 PM 71.1 °F - 68.2 °F 91% 29.96 in 10.0 mi Calm Calm - N/A   Clear
11:58 PM 69.3 °F - 68.2 °F 96% 29.99 in 10.0 mi Calm Calm - N/A   Clear